Year,Month,Day,Hour,Minute,Value (Times are PST for temperature in C)
2016,08,05,00,00,17.70
2016,08,05,00,01,17.70
2016,08,05,00,02,17.70
2016,08,05,00,03,17.70
2016,08,05,00,04,17.60
2016,08,05,00,05,17.60
2016,08,05,00,06,17.60
2016,08,05,00,07,17.60
2016,08,05,00,08,17.60
2016,08,05,00,09,17.60
2016,08,05,00,10,17.50
2016,08,05,00,11,17.50
2016,08,05,00,12,17.50
2016,08,05,00,13,17.40
2016,08,05,00,14,17.40
2016,08,05,00,15,17.40
2016,08,05,00,16,17.40
2016,08,05,00,17,17.40
2016,08,05,00,18,17.30
2016,08,05,00,19,17.30
2016,08,05,00,20,17.30
2016,08,05,00,21,17.30
2016,08,05,00,22,17.30
2016,08,05,00,23,17.30
2016,08,05,00,24,17.20
2016,08,05,00,25,17.20
2016,08,05,00,26,17.20
2016,08,05,00,27,17.20
2016,08,05,00,28,17.20
2016,08,05,00,29,17.20
2016,08,05,00,30,17.20
2016,08,05,00,31,17.20
2016,08,05,00,32,17.20
2016,08,05,00,33,17.20
2016,08,05,00,34,17.10
2016,08,05,00,35,17.10
2016,08,05,00,36,17.10
2016,08,05,00,37,17.10
2016,08,05,00,38,17.10
2016,08,05,00,39,17.10
2016,08,05,00,40,17.10
2016,08,05,00,41,17.00
2016,08,05,00,42,17.00
2016,08,05,00,43,17.00
2016,08,05,00,44,17.00
2016,08,05,00,45,17.00
2016,08,05,00,46,17.00
2016,08,05,00,47,17.00
2016,08,05,00,48,16.90
2016,08,05,00,49,16.90
2016,08,05,00,50,16.90
2016,08,05,00,51,16.90
2016,08,05,00,52,16.90
2016,08,05,00,53,16.90
2016,08,05,00,54,16.90
2016,08,05,00,55,16.90
2016,08,05,00,56,16.90
2016,08,05,00,57,16.90
2016,08,05,00,58,16.90
2016,08,05,00,59,16.90
2016,08,05,01,00,16.90
2016,08,05,01,01,16.80
2016,08,05,01,02,16.80
2016,08,05,01,03,16.80
2016,08,05,01,04,16.80
2016,08,05,01,05,16.80
2016,08,05,01,06,16.80
2016,08,05,01,07,16.80
2016,08,05,01,08,16.80
2016,08,05,01,09,16.80
2016,08,05,01,10,16.70
2016,08,05,01,11,16.70
2016,08,05,01,12,16.70
2016,08,05,01,13,16.70
2016,08,05,01,14,16.70
2016,08,05,01,15,16.70
2016,08,05,01,16,16.70
2016,08,05,01,17,16.70
2016,08,05,01,18,16.70
2016,08,05,01,19,16.70
2016,08,05,01,20,16.60
2016,08,05,01,21,16.60
2016,08,05,01,22,16.60
2016,08,05,01,23,16.60
2016,08,05,01,24,16.60
2016,08,05,01,25,16.60
2016,08,05,01,26,16.60
2016,08,05,01,27,16.60
2016,08,05,01,28,16.60
2016,08,05,01,29,16.60
2016,08,05,01,30,16.60
2016,08,05,01,31,16.50
2016,08,05,01,32,16.50
2016,08,05,01,33,16.50
2016,08,05,01,34,16.50
2016,08,05,01,35,16.50
2016,08,05,01,36,16.50
2016,08,05,01,37,16.50
2016,08,05,01,38,16.50
2016,08,05,01,39,16.40
2016,08,05,01,40,16.40
2016,08,05,01,41,16.40
2016,08,05,01,42,16.40
2016,08,05,01,43,16.40
2016,08,05,01,44,16.40
2016,08,05,01,45,16.30
2016,08,05,01,46,16.30
2016,08,05,01,47,16.30
2016,08,05,01,48,16.30
2016,08,05,01,49,16.30
2016,08,05,01,50,16.30
2016,08,05,01,51,16.30
2016,08,05,01,52,16.20
2016,08,05,01,53,16.20
2016,08,05,01,54,16.20
2016,08,05,01,55,16.20
2016,08,05,01,56,16.20
2016,08,05,01,57,16.20
2016,08,05,01,58,16.20
2016,08,05,01,59,16.10
2016,08,05,02,00,16.10
2016,08,05,02,01,16.10
2016,08,05,02,02,16.10
2016,08,05,02,03,16.10
2016,08,05,02,04,16.10
2016,08,05,02,05,16.10
2016,08,05,02,06,16.10
2016,08,05,02,07,16.10
2016,08,05,02,08,16.00
2016,08,05,02,09,16.00
2016,08,05,02,10,16.00
2016,08,05,02,11,16.00
2016,08,05,02,12,16.00
2016,08,05,02,13,16.00
2016,08,05,02,14,16.00
2016,08,05,02,15,16.00
2016,08,05,02,16,16.00
2016,08,05,02,17,15.90
2016,08,05,02,18,15.90
2016,08,05,02,19,15.90
2016,08,05,02,20,15.90
2016,08,05,02,21,15.90
2016,08,05,02,22,15.90
2016,08,05,02,23,15.90
2016,08,05,02,24,15.90
2016,08,05,02,25,15.90
2016,08,05,02,26,15.90
2016,08,05,02,27,15.90
2016,08,05,02,28,15.80
2016,08,05,02,29,15.80
2016,08,05,02,30,15.80
2016,08,05,02,31,15.80
2016,08,05,02,32,15.80
2016,08,05,02,33,15.80
2016,08,05,02,34,15.80
2016,08,05,02,35,15.80
2016,08,05,02,36,15.80
2016,08,05,02,37,15.80
2016,08,05,02,38,15.70
2016,08,05,02,39,15.70
2016,08,05,02,40,15.70
2016,08,05,02,41,15.70
2016,08,05,02,42,15.70
2016,08,05,02,43,15.70
2016,08,05,02,44,15.70
2016,08,05,02,45,15.70
2016,08,05,02,46,15.70
2016,08,05,02,47,15.70
2016,08,05,02,48,15.70
2016,08,05,02,49,15.70
2016,08,05,02,50,15.70
2016,08,05,02,51,15.70
2016,08,05,02,52,15.70
2016,08,05,02,53,15.70
2016,08,05,02,54,15.70
2016,08,05,02,55,15.60
2016,08,05,02,56,15.60
2016,08,05,02,57,15.60
2016,08,05,02,58,15.60
2016,08,05,02,59,15.60
2016,08,05,03,00,15.60
2016,08,05,03,01,15.60
2016,08,05,03,02,15.60
2016,08,05,03,03,15.60
2016,08,05,03,04,15.60
2016,08,05,03,05,15.60
2016,08,05,03,06,15.60
2016,08,05,03,07,15.50
2016,08,05,03,08,15.50
2016,08,05,03,09,15.50
2016,08,05,03,10,15.50
2016,08,05,03,11,15.50
2016,08,05,03,12,15.50
2016,08,05,03,13,15.50
2016,08,05,03,14,15.50
2016,08,05,03,15,15.50
2016,08,05,03,16,15.50
2016,08,05,03,17,15.40
2016,08,05,03,18,15.40
2016,08,05,03,19,15.40
2016,08,05,03,20,15.40
2016,08,05,03,21,15.40
2016,08,05,03,22,15.40
2016,08,05,03,23,15.40
2016,08,05,03,24,15.30
2016,08,05,03,25,15.30
2016,08,05,03,26,15.30
2016,08,05,03,27,15.30
2016,08,05,03,28,15.30
2016,08,05,03,29,15.30
2016,08,05,03,30,15.30
2016,08,05,03,31,15.30
2016,08,05,03,32,15.30
2016,08,05,03,33,15.30
2016,08,05,03,34,15.30
2016,08,05,03,35,15.30
2016,08,05,03,36,15.30
2016,08,05,03,37,15.30
2016,08,05,03,38,15.30
2016,08,05,03,39,15.30
2016,08,05,03,40,15.20
2016,08,05,03,41,15.20
2016,08,05,03,42,15.20
2016,08,05,03,43,15.20
2016,08,05,03,44,15.20
2016,08,05,03,45,15.20
2016,08,05,03,46,15.20
2016,08,05,03,47,15.20
2016,08,05,03,48,15.20
2016,08,05,03,49,15.20
2016,08,05,03,50,15.20
2016,08,05,03,51,15.10
2016,08,05,03,52,15.10
2016,08,05,03,53,15.10
2016,08,05,03,54,15.10
2016,08,05,03,55,15.10
2016,08,05,03,56,15.10
2016,08,05,03,57,15.10
2016,08,05,03,58,15.10
2016,08,05,03,59,15.10
2016,08,05,04,00,15.10
2016,08,05,04,01,15.10
2016,08,05,04,02,15.00
2016,08,05,04,03,15.00
2016,08,05,04,04,15.00
2016,08,05,04,05,15.00
2016,08,05,04,06,14.90
2016,08,05,04,07,14.90
2016,08,05,04,08,14.90
2016,08,05,04,09,14.90
2016,08,05,04,10,14.90
2016,08,05,04,11,14.90
2016,08,05,04,12,14.90
2016,08,05,04,13,14.90
2016,08,05,04,14,14.90
2016,08,05,04,15,14.90
2016,08,05,04,16,14.90
2016,08,05,04,17,14.80
2016,08,05,04,18,14.80
2016,08,05,04,19,14.80
2016,08,05,04,20,14.80
2016,08,05,04,21,14.80
2016,08,05,04,22,14.80
2016,08,05,04,23,14.80
2016,08,05,04,24,14.80
2016,08,05,04,25,14.80
2016,08,05,04,26,14.80
2016,08,05,04,27,14.80
2016,08,05,04,28,14.80
2016,08,05,04,29,14.70
2016,08,05,04,30,14.70
2016,08,05,04,31,14.70
2016,08,05,04,32,14.70
2016,08,05,04,33,14.70
2016,08,05,04,34,14.70
2016,08,05,04,35,14.70
2016,08,05,04,36,14.70
2016,08,05,04,37,14.70
2016,08,05,04,38,14.70
2016,08,05,04,39,14.70
2016,08,05,04,40,14.70
2016,08,05,04,41,14.70
2016,08,05,04,42,14.70
2016,08,05,04,43,14.70
2016,08,05,04,44,14.70
2016,08,05,04,45,14.70
2016,08,05,04,46,14.70
2016,08,05,04,47,14.70
2016,08,05,04,48,14.70
2016,08,05,04,49,14.70
2016,08,05,04,50,14.70
2016,08,05,04,51,14.70
2016,08,05,04,52,14.70
2016,08,05,04,53,14.70
2016,08,05,04,54,14.70
2016,08,05,04,55,14.70
2016,08,05,04,56,14.70
2016,08,05,04,57,14.70
2016,08,05,04,58,14.70
2016,08,05,04,59,14.70
2016,08,05,05,00,14.70
2016,08,05,05,01,14.70
2016,08,05,05,02,14.70
2016,08,05,05,03,14.70
2016,08,05,05,04,14.70
2016,08,05,05,05,14.70
2016,08,05,05,06,14.70
2016,08,05,05,07,14.70
2016,08,05,05,08,14.70
2016,08,05,05,09,14.70
2016,08,05,05,10,14.70
2016,08,05,05,11,14.70
2016,08,05,05,12,14.70
2016,08,05,05,13,14.70
2016,08,05,05,14,14.70
2016,08,05,05,15,14.70
2016,08,05,05,16,14.70
2016,08,05,05,17,14.70
2016,08,05,05,18,14.60
2016,08,05,05,19,14.60
2016,08,05,05,20,14.60
2016,08,05,05,21,14.60
2016,08,05,05,22,14.70
2016,08,05,05,23,14.60
2016,08,05,05,24,14.60
2016,08,05,05,25,14.60
2016,08,05,05,26,14.60
2016,08,05,05,27,14.70
2016,08,05,05,28,14.60
2016,08,05,05,29,14.60
2016,08,05,05,30,14.60
2016,08,05,05,31,14.60
2016,08,05,05,32,14.60
2016,08,05,05,33,14.60
2016,08,05,05,34,14.60
2016,08,05,05,35,14.60
2016,08,05,05,36,14.60
2016,08,05,05,37,14.60
2016,08,05,05,38,14.60
2016,08,05,05,39,14.60
2016,08,05,05,40,14.60
2016,08,05,05,41,14.60
2016,08,05,05,42,14.60
2016,08,05,05,43,14.60
2016,08,05,05,44,14.60
2016,08,05,05,45,14.50
2016,08,05,05,46,14.50
2016,08,05,05,47,14.50
2016,08,05,05,48,14.50
2016,08,05,05,49,14.40
2016,08,05,05,50,14.40
2016,08,05,05,51,14.40
2016,08,05,05,52,14.40
2016,08,05,05,53,14.40
2016,08,05,05,54,14.40
2016,08,05,05,55,14.40
2016,08,05,05,56,14.40
2016,08,05,05,57,14.40
2016,08,05,05,58,14.40
2016,08,05,05,59,14.40
2016,08,05,06,00,14.50
2016,08,05,06,01,14.50
2016,08,05,06,02,14.50
2016,08,05,06,03,14.50
2016,08,05,06,04,14.50
2016,08,05,06,05,14.50
2016,08,05,06,06,14.60
2016,08,05,06,07,14.60
2016,08,05,06,08,14.60
2016,08,05,06,09,14.60
2016,08,05,06,10,14.60
2016,08,05,06,11,14.60
2016,08,05,06,12,14.60
2016,08,05,06,13,14.60
2016,08,05,06,14,14.60
2016,08,05,06,15,14.60
2016,08,05,06,16,14.60
2016,08,05,06,17,14.60
2016,08,05,06,18,14.60
2016,08,05,06,19,14.60
2016,08,05,06,20,14.60
2016,08,05,06,21,14.60
2016,08,05,06,22,14.70
2016,08,05,06,23,14.70
2016,08,05,06,24,14.70
2016,08,05,06,25,14.70
2016,08,05,06,26,14.70
2016,08,05,06,27,14.70
2016,08,05,06,28,14.70
2016,08,05,06,29,14.70
2016,08,05,06,30,14.80
2016,08,05,06,31,14.80
2016,08,05,06,32,14.80
2016,08,05,06,33,14.80
2016,08,05,06,34,14.80
2016,08,05,06,35,14.80
2016,08,05,06,36,14.80
2016,08,05,06,37,14.80
2016,08,05,06,38,14.80
2016,08,05,06,39,14.80
2016,08,05,06,40,14.80
2016,08,05,06,41,14.90
2016,08,05,06,42,14.90
2016,08,05,06,43,14.90
2016,08,05,06,44,14.90
2016,08,05,06,45,14.90
2016,08,05,06,46,14.90
2016,08,05,06,47,14.90
2016,08,05,06,48,14.90
2016,08,05,06,49,14.80
2016,08,05,06,50,14.80
2016,08,05,06,51,14.80
2016,08,05,06,52,14.80
2016,08,05,06,53,14.80
2016,08,05,06,54,14.80
2016,08,05,06,55,14.80
2016,08,05,06,56,14.80
2016,08,05,06,57,14.80
2016,08,05,06,58,14.70
2016,08,05,06,59,14.70
2016,08,05,07,00,14.70
2016,08,05,07,01,14.70
2016,08,05,07,02,14.80
2016,08,05,07,03,14.80
2016,08,05,07,04,14.80
2016,08,05,07,05,14.80
2016,08,05,07,06,14.80
2016,08,05,07,07,14.80
2016,08,05,07,08,14.90
2016,08,05,07,09,14.90
2016,08,05,07,10,14.90
2016,08,05,07,11,15.00
2016,08,05,07,12,15.00
2016,08,05,07,13,15.10
2016,08,05,07,14,15.20
2016,08,05,07,15,15.20
2016,08,05,07,16,15.30
2016,08,05,07,17,15.30
2016,08,05,07,18,15.30
2016,08,05,07,19,15.40
2016,08,05,07,20,15.40
2016,08,05,07,21,15.50
2016,08,05,07,22,15.60
2016,08,05,07,23,15.60
2016,08,05,07,24,15.70
2016,08,05,07,25,15.70
2016,08,05,07,26,15.70
2016,08,05,07,27,15.80
2016,08,05,07,28,15.80
2016,08,05,07,29,15.80
2016,08,05,07,30,15.90
2016,08,05,07,31,15.90
2016,08,05,07,32,15.90
2016,08,05,07,33,16.00
2016,08,05,07,34,16.00
2016,08,05,07,35,16.10
2016,08,05,07,36,16.10
2016,08,05,07,37,16.10
2016,08,05,07,38,16.10
2016,08,05,07,39,16.10
2016,08,05,07,40,16.10
2016,08,05,07,41,16.20
2016,08,05,07,42,16.20
2016,08,05,07,43,16.20
2016,08,05,07,44,16.20
2016,08,05,07,45,16.30
2016,08,05,07,46,16.30
2016,08,05,07,47,16.30
2016,08,05,07,48,16.30
2016,08,05,07,49,16.30
2016,08,05,07,50,16.40
2016,08,05,07,51,16.40
2016,08,05,07,52,16.50
2016,08,05,07,53,16.50
2016,08,05,07,54,16.60
2016,08,05,07,55,16.60
2016,08,05,07,56,16.60
2016,08,05,07,57,16.60
2016,08,05,07,58,16.60
2016,08,05,07,59,16.60
2016,08,05,08,00,16.70
2016,08,05,08,01,16.70
2016,08,05,08,02,16.70
2016,08,05,08,03,16.70
2016,08,05,08,04,16.80
2016,08,05,08,05,16.80
2016,08,05,08,06,16.80
2016,08,05,08,07,16.80
2016,08,05,08,08,16.80
2016,08,05,08,09,16.90
2016,08,05,08,10,16.90
2016,08,05,08,11,16.90
2016,08,05,08,12,16.90
2016,08,05,08,13,16.90
2016,08,05,08,14,16.90
2016,08,05,08,15,16.90
2016,08,05,08,16,17.00
2016,08,05,08,17,17.00
2016,08,05,08,18,17.00
2016,08,05,08,19,17.00
2016,08,05,08,20,17.10
2016,08,05,08,21,17.10
2016,08,05,08,22,17.10
2016,08,05,08,23,17.10
2016,08,05,08,24,17.10
2016,08,05,08,25,17.10
2016,08,05,08,26,17.20
2016,08,05,08,27,17.20
2016,08,05,08,28,17.20
2016,08,05,08,29,17.30
2016,08,05,08,30,17.30
2016,08,05,08,31,17.30
2016,08,05,08,32,17.40
2016,08,05,08,33,17.50
2016,08,05,08,34,17.50
2016,08,05,08,35,17.60
2016,08,05,08,36,17.60
2016,08,05,08,37,17.60
2016,08,05,08,38,17.70
2016,08,05,08,39,17.70
2016,08,05,08,40,17.70
2016,08,05,08,41,17.70
2016,08,05,08,42,17.80
2016,08,05,08,43,17.90
2016,08,05,08,44,17.90
2016,08,05,08,45,17.90
2016,08,05,08,46,17.90
2016,08,05,08,47,17.90
2016,08,05,08,48,17.90
2016,08,05,08,49,17.90
2016,08,05,08,50,17.90
2016,08,05,08,51,17.90
2016,08,05,08,52,17.90
2016,08,05,08,53,17.90
2016,08,05,08,54,18.00
2016,08,05,08,55,18.00
2016,08,05,08,56,18.10
2016,08,05,08,57,18.10
2016,08,05,08,58,18.10
2016,08,05,08,59,18.20
2016,08,05,09,00,18.20
2016,08,05,09,01,18.20
2016,08,05,09,02,18.20
2016,08,05,09,03,18.20
2016,08,05,09,04,18.20
2016,08,05,09,05,18.10
2016,08,05,09,06,18.10
2016,08,05,09,07,18.10
2016,08,05,09,08,18.10
2016,08,05,09,09,18.10
2016,08,05,09,10,18.10
2016,08,05,09,11,18.10
2016,08,05,09,12,18.20
2016,08,05,09,13,18.20
2016,08,05,09,14,18.20
2016,08,05,09,15,18.20
2016,08,05,09,16,18.30
2016,08,05,09,17,18.30
2016,08,05,09,18,18.30
2016,08,05,09,19,18.30
2016,08,05,09,20,18.30
2016,08,05,09,21,18.30
2016,08,05,09,22,18.30
2016,08,05,09,23,18.30
2016,08,05,09,24,18.30
2016,08,05,09,25,18.30
2016,08,05,09,26,18.30
2016,08,05,09,27,18.30
2016,08,05,09,28,18.30
2016,08,05,09,29,18.30
2016,08,05,09,30,18.30
2016,08,05,09,31,18.30
2016,08,05,09,32,18.30
2016,08,05,09,33,18.40
2016,08,05,09,34,18.30
2016,08,05,09,35,18.40
2016,08,05,09,36,18.40
2016,08,05,09,37,18.40
2016,08,05,09,38,18.40
2016,08,05,09,39,18.40
2016,08,05,09,40,18.40
2016,08,05,09,41,18.40
2016,08,05,09,42,18.40
2016,08,05,09,43,18.30
2016,08,05,09,44,18.30
2016,08,05,09,45,18.30
2016,08,05,09,46,18.30
2016,08,05,09,47,18.30
2016,08,05,09,48,18.30
2016,08,05,09,49,18.40
2016,08,05,09,50,18.40
2016,08,05,09,51,18.50
2016,08,05,09,52,18.50
2016,08,05,09,53,18.50
2016,08,05,09,54,18.60
2016,08,05,09,55,18.60
2016,08,05,09,56,18.50
2016,08,05,09,57,18.50
2016,08,05,09,58,18.50
2016,08,05,09,59,18.50
2016,08,05,10,00,18.40
2016,08,05,10,01,18.40
2016,08,05,10,02,18.30
2016,08,05,10,03,18.30
2016,08,05,10,04,18.30
2016,08,05,10,05,18.30
2016,08,05,10,06,18.20
2016,08,05,10,07,18.20
2016,08,05,10,08,18.20
2016,08,05,10,09,18.20
2016,08,05,10,10,18.20
2016,08,05,10,11,18.20
2016,08,05,10,12,18.10
2016,08,05,10,13,18.10
2016,08,05,10,14,18.10
2016,08,05,10,15,18.10
2016,08,05,10,16,18.10
2016,08,05,10,17,18.10
2016,08,05,10,18,18.00
2016,08,05,10,19,17.90
2016,08,05,10,20,17.80
2016,08,05,10,21,17.70
2016,08,05,10,22,17.70
2016,08,05,10,23,17.70
2016,08,05,10,24,17.70
2016,08,05,10,25,17.70
2016,08,05,10,26,17.70
2016,08,05,10,27,17.70
2016,08,05,10,28,17.70
2016,08,05,10,29,17.70
2016,08,05,10,30,17.80
2016,08,05,10,31,17.80
2016,08,05,10,32,17.90
2016,08,05,10,33,17.90
2016,08,05,10,34,18.00
2016,08,05,10,35,18.00
2016,08,05,10,36,18.00
2016,08,05,10,37,18.00
2016,08,05,10,38,18.10
2016,08,05,10,39,18.10
2016,08,05,10,40,18.10
2016,08,05,10,41,18.10
2016,08,05,10,42,18.10
2016,08,05,10,43,18.10
2016,08,05,10,44,18.10
2016,08,05,10,45,18.10
2016,08,05,10,46,18.10
2016,08,05,10,47,18.10
2016,08,05,10,48,18.20
2016,08,05,10,49,18.20
2016,08,05,10,50,18.30
2016,08,05,10,51,18.40
2016,08,05,10,52,18.40
2016,08,05,10,53,18.40
2016,08,05,10,54,18.40
2016,08,05,10,55,18.40
2016,08,05,10,56,18.30
2016,08,05,10,57,18.30
2016,08,05,10,58,18.30
2016,08,05,10,59,18.20
2016,08,05,11,00,18.30
2016,08,05,11,01,18.30
2016,08,05,11,02,18.30
2016,08,05,11,03,18.30
2016,08,05,11,04,18.40
2016,08,05,11,05,18.50
2016,08,05,11,06,18.60
2016,08,05,11,07,18.70
2016,08,05,11,08,18.80
2016,08,05,11,09,18.90
2016,08,05,11,10,18.90
2016,08,05,11,11,19.00
2016,08,05,11,12,19.00
2016,08,05,11,13,19.00
2016,08,05,11,14,18.90
2016,08,05,11,15,19.00
2016,08,05,11,16,19.00
2016,08,05,11,17,19.10
2016,08,05,11,18,19.10
2016,08,05,11,19,19.00
2016,08,05,11,20,19.00
2016,08,05,11,21,19.00
2016,08,05,11,22,18.90
2016,08,05,11,23,18.90
2016,08,05,11,24,18.80
2016,08,05,11,25,18.80
2016,08,05,11,26,18.70
2016,08,05,11,27,18.70
2016,08,05,11,28,18.50
2016,08,05,11,29,18.40
2016,08,05,11,30,18.40
2016,08,05,11,31,18.40
2016,08,05,11,32,18.40
2016,08,05,11,33,18.40
2016,08,05,11,34,18.40
2016,08,05,11,35,18.30
2016,08,05,11,36,18.30
2016,08,05,11,37,18.40
2016,08,05,11,38,18.50
2016,08,05,11,39,18.50
2016,08,05,11,40,18.60
2016,08,05,11,41,18.70
2016,08,05,11,42,18.80
2016,08,05,11,43,18.80
2016,08,05,11,44,18.90
2016,08,05,11,45,18.90
2016,08,05,11,46,18.90
2016,08,05,11,47,18.90
2016,08,05,11,48,18.90
2016,08,05,11,49,18.90
2016,08,05,11,50,18.90
2016,08,05,11,51,18.90
2016,08,05,11,52,18.90
2016,08,05,11,53,18.90
2016,08,05,11,54,18.90
2016,08,05,11,55,18.90
2016,08,05,11,56,18.90
2016,08,05,11,57,18.90
2016,08,05,11,58,18.90
2016,08,05,11,59,18.90
2016,08,05,12,00,19.00
2016,08,05,12,01,19.10
2016,08,05,12,02,19.10
2016,08,05,12,03,19.20
2016,08,05,12,04,19.40
2016,08,05,12,05,19.40
2016,08,05,12,06,19.50
2016,08,05,12,07,19.60
2016,08,05,12,08,19.60
2016,08,05,12,09,19.70
2016,08,05,12,10,19.70
2016,08,05,12,11,19.70
2016,08,05,12,12,19.60
2016,08,05,12,13,19.60
2016,08,05,12,14,19.60
2016,08,05,12,15,19.60
2016,08,05,12,16,19.60
2016,08,05,12,17,19.60
2016,08,05,12,18,19.70
2016,08,05,12,19,19.70
2016,08,05,12,20,19.70
2016,08,05,12,21,19.70
2016,08,05,12,22,19.70
2016,08,05,12,23,19.60
2016,08,05,12,24,19.50
2016,08,05,12,25,19.50
2016,08,05,12,26,19.50
2016,08,05,12,27,19.40
2016,08,05,12,28,19.40
2016,08,05,12,29,19.40
2016,08,05,12,30,19.50
2016,08,05,12,31,19.50
2016,08,05,12,32,19.50
2016,08,05,12,33,19.50
2016,08,05,12,34,19.50
2016,08,05,12,35,19.50
2016,08,05,12,36,19.60
2016,08,05,12,37,19.60
2016,08,05,12,38,19.60
2016,08,05,12,39,19.50
2016,08,05,12,40,19.60
2016,08,05,12,41,19.50
2016,08,05,12,42,19.40
2016,08,05,12,43,19.30
2016,08,05,12,44,19.30
2016,08,05,12,45,19.20
2016,08,05,12,46,19.10
2016,08,05,12,47,19.00
2016,08,05,12,48,18.90
2016,08,05,12,49,18.90
2016,08,05,12,50,18.80
2016,08,05,12,51,18.80
2016,08,05,12,52,18.90
2016,08,05,12,53,18.90
2016,08,05,12,54,19.00
2016,08,05,12,55,19.00
2016,08,05,12,56,19.10
2016,08,05,12,57,19.20
2016,08,05,12,58,19.20
2016,08,05,12,59,19.20
2016,08,05,13,00,19.30
2016,08,05,13,01,19.40
2016,08,05,13,02,19.50
2016,08,05,13,03,19.50
2016,08,05,13,04,19.50
2016,08,05,13,05,19.40
2016,08,05,13,06,19.40
2016,08,05,13,07,19.40
2016,08,05,13,08,19.40
2016,08,05,13,09,19.50
2016,08,05,13,10,19.50
2016,08,05,13,11,19.60
2016,08,05,13,12,19.60
2016,08,05,13,13,19.60
2016,08,05,13,14,19.60
2016,08,05,13,15,19.70
2016,08,05,13,16,19.70
2016,08,05,13,17,19.70
2016,08,05,13,18,19.70
2016,08,05,13,19,19.70
2016,08,05,13,20,19.70
2016,08,05,13,21,19.70
2016,08,05,13,22,19.70
2016,08,05,13,23,19.70
2016,08,05,13,24,19.70
2016,08,05,13,25,19.70
2016,08,05,13,26,19.80
2016,08,05,13,27,19.80
2016,08,05,13,28,19.70
2016,08,05,13,29,19.70
2016,08,05,13,30,19.70
2016,08,05,13,31,19.70
2016,08,05,13,32,19.60
2016,08,05,13,33,19.60
2016,08,05,13,34,19.60
2016,08,05,13,35,19.70
2016,08,05,13,36,19.70
2016,08,05,13,37,19.70
2016,08,05,13,38,19.80
2016,08,05,13,39,19.80
2016,08,05,13,40,19.80
2016,08,05,13,41,19.80
2016,08,05,13,42,19.80
2016,08,05,13,43,19.80
2016,08,05,13,44,19.80
2016,08,05,13,45,19.80
2016,08,05,13,46,19.80
2016,08,05,13,47,19.70
2016,08,05,13,48,19.70
2016,08,05,13,49,19.70
2016,08,05,13,50,19.70
2016,08,05,13,51,19.70
2016,08,05,13,52,19.70
2016,08,05,13,53,19.80
2016,08,05,13,54,19.80
2016,08,05,13,55,19.70
2016,08,05,13,56,19.80
2016,08,05,13,57,19.70
2016,08,05,13,58,19.70
2016,08,05,13,59,19.70
2016,08,05,14,00,19.70
2016,08,05,14,01,19.70
2016,08,05,14,02,19.70
2016,08,05,14,03,19.70
2016,08,05,14,04,19.70
2016,08,05,14,05,19.70
2016,08,05,14,06,19.70
2016,08,05,14,07,19.60
2016,08,05,14,08,19.60
2016,08,05,14,09,19.60
2016,08,05,14,10,19.60
2016,08,05,14,11,19.50
2016,08,05,14,12,19.50
2016,08,05,14,13,19.40
2016,08,05,14,14,19.40
2016,08,05,14,15,19.30
2016,08,05,14,16,19.30
2016,08,05,14,17,19.30
2016,08,05,14,18,19.30
2016,08,05,14,19,19.40
2016,08,05,14,20,19.30
2016,08,05,14,21,19.40
2016,08,05,14,22,19.40
2016,08,05,14,23,19.40
2016,08,05,14,24,19.40
2016,08,05,14,25,19.40
2016,08,05,14,26,19.40
2016,08,05,14,27,19.40
2016,08,05,14,28,19.50
2016,08,05,14,29,19.60
2016,08,05,14,30,19.70
2016,08,05,14,31,19.80
2016,08,05,14,32,19.80
2016,08,05,14,33,19.90
2016,08,05,14,34,19.80
2016,08,05,14,35,19.80
2016,08,05,14,36,19.80
2016,08,05,14,37,19.90
2016,08,05,14,38,19.90
2016,08,05,14,39,19.90
2016,08,05,14,40,19.90
2016,08,05,14,41,19.90
2016,08,05,14,42,20.00
2016,08,05,14,43,20.00
2016,08,05,14,44,20.00
2016,08,05,14,45,20.00
2016,08,05,14,46,20.00
2016,08,05,14,47,20.00
2016,08,05,14,48,19.90
2016,08,05,14,49,19.90
2016,08,05,14,50,19.90
2016,08,05,14,51,19.80
2016,08,05,14,52,19.80
2016,08,05,14,53,19.70
2016,08,05,14,54,19.70
2016,08,05,14,55,19.70
2016,08,05,14,56,19.70
2016,08,05,14,57,19.70
2016,08,05,14,58,19.70
2016,08,05,14,59,19.70
2016,08,05,15,00,19.70
2016,08,05,15,01,19.80
2016,08,05,15,02,19.80
2016,08,05,15,03,19.90
2016,08,05,15,04,20.00
2016,08,05,15,05,20.00
2016,08,05,15,06,20.10
2016,08,05,15,07,20.20
2016,08,05,15,08,20.10
2016,08,05,15,09,20.10
2016,08,05,15,10,20.10
2016,08,05,15,11,20.20
2016,08,05,15,12,20.20
2016,08,05,15,13,20.20
2016,08,05,15,14,20.20
2016,08,05,15,15,20.20
2016,08,05,15,16,20.30
2016,08,05,15,17,20.30
2016,08,05,15,18,20.30
2016,08,05,15,19,20.30
2016,08,05,15,20,20.30
2016,08,05,15,21,20.30
2016,08,05,15,22,20.20
2016,08,05,15,23,20.10
2016,08,05,15,24,20.00
2016,08,05,15,25,19.90
2016,08,05,15,26,19.90
2016,08,05,15,27,19.80
2016,08,05,15,28,19.70
2016,08,05,15,29,19.70
2016,08,05,15,30,19.60
2016,08,05,15,31,19.50
2016,08,05,15,32,19.50
2016,08,05,15,33,19.40
2016,08,05,15,34,19.30
2016,08,05,15,35,19.20
2016,08,05,15,36,19.10
2016,08,05,15,37,19.10
2016,08,05,15,38,19.10
2016,08,05,15,39,19.10
2016,08,05,15,40,19.00
2016,08,05,15,41,19.00
2016,08,05,15,42,18.90
2016,08,05,15,43,18.90
2016,08,05,15,44,18.80
2016,08,05,15,45,18.80
2016,08,05,15,46,18.80
2016,08,05,15,47,18.70
2016,08,05,15,48,18.70
2016,08,05,15,49,18.80
2016,08,05,15,50,18.80
2016,08,05,15,51,18.80
2016,08,05,15,52,18.90
2016,08,05,15,53,19.00
2016,08,05,15,54,19.10
2016,08,05,15,55,19.10
2016,08,05,15,56,19.20
2016,08,05,15,57,19.20
2016,08,05,15,58,19.20
2016,08,05,15,59,19.20
2016,08,05,16,00,19.20
2016,08,05,16,01,19.20
2016,08,05,16,02,19.20
2016,08,05,16,03,19.30
2016,08,05,16,04,19.30
2016,08,05,16,05,19.40
2016,08,05,16,06,19.50
2016,08,05,16,07,19.60
2016,08,05,16,08,19.60
2016,08,05,16,09,19.60
2016,08,05,16,10,19.70
2016,08,05,16,11,19.70
2016,08,05,16,12,19.70
2016,08,05,16,13,19.70
2016,08,05,16,14,19.70
2016,08,05,16,15,19.70
2016,08,05,16,16,19.70
2016,08,05,16,17,19.70
2016,08,05,16,18,19.70
2016,08,05,16,19,19.70
2016,08,05,16,20,19.70
2016,08,05,16,21,19.60
2016,08,05,16,22,19.60
2016,08,05,16,23,19.60
2016,08,05,16,24,19.50
2016,08,05,16,25,19.50
2016,08,05,16,26,19.40
2016,08,05,16,27,19.40
2016,08,05,16,28,19.40
2016,08,05,16,29,19.40
2016,08,05,16,30,19.40
2016,08,05,16,31,19.40
2016,08,05,16,32,19.50
2016,08,05,16,33,19.50
2016,08,05,16,34,19.50
2016,08,05,16,35,19.50
2016,08,05,16,36,19.60
2016,08,05,16,37,19.60
2016,08,05,16,38,19.70
2016,08,05,16,39,19.70
2016,08,05,16,40,19.80
2016,08,05,16,41,19.90
2016,08,05,16,42,19.90
2016,08,05,16,43,20.00
2016,08,05,16,44,20.00
2016,08,05,16,45,20.00
2016,08,05,16,46,20.00
2016,08,05,16,47,20.10
2016,08,05,16,48,20.10
2016,08,05,16,49,20.10
2016,08,05,16,50,20.10
2016,08,05,16,51,20.10
2016,08,05,16,52,20.10
2016,08,05,16,53,20.10
2016,08,05,16,54,20.10
2016,08,05,16,55,20.10
2016,08,05,16,56,20.10
2016,08,05,16,57,20.10
2016,08,05,16,58,20.10
2016,08,05,16,59,20.10
2016,08,05,17,00,20.20
2016,08,05,17,01,20.20
2016,08,05,17,02,20.20
2016,08,05,17,03,20.20
2016,08,05,17,04,20.10
2016,08,05,17,05,20.10
2016,08,05,17,06,20.10
2016,08,05,17,07,20.20
2016,08,05,17,08,20.20
2016,08,05,17,09,20.20
2016,08,05,17,10,20.20
2016,08,05,17,11,20.20
2016,08,05,17,12,20.20
2016,08,05,17,13,20.20
2016,08,05,17,14,20.20
2016,08,05,17,15,20.30
2016,08,05,17,16,20.30
2016,08,05,17,17,20.30
2016,08,05,17,18,20.30
2016,08,05,17,19,20.30